This is the latest recevied weather packets stored in our database for station/object KM4NDN. If no packets are shown the sender has not sent any weather packets the latest 10 day(s).
| Time | Temp. | Humidity | Pressure | Rain* | Wind** | Luminosity | Snow |
|---|---|---|---|---|---|---|---|
| 1777488015 | 9.44° C | 94% | 1008.2 hPa | 0 mm | - | 119 W/m² | - |
| 1777487712 | 10° C | 94% | 1008.2 hPa | 0 mm | - | 155 W/m² | - |
| 1777487410 | 9.44° C | 94% | 1008.2 hPa | 0 mm | - | 150 W/m² | - |
| 1777487107 | 10° C | 94% | 1008.2 hPa | 0 mm | - | 151 W/m² | - |
| 1777486802 | 10° C | 94% | 1008.2 hPa | 0 mm | - | 100 W/m² | - |
| 1777486500 | 10° C | 93% | 1008.3 hPa | 0 mm | - | 153 W/m² | - |
| 1777486198 | 9.44° C | 94% | 1008.3 hPa | 0 mm | - | 194 W/m² | - |
| 1777485895 | 10° C | 93% | 1008.4 hPa | 0 mm | - | 164 W/m² | - |
| 1777485590 | 9.44° C | 93% | 1008.6 hPa | 0 mm | - | 91 W/m² | - |
| 1777485286 | 10° C | 92% | 1008.5 hPa | 0 mm | - | 96 W/m² | - |
| 1777484983 | 10° C | 92% | 1008.6 hPa | 0 mm | - | 67 W/m² | - |
| 1777484680 | 10° C | 91% | 1008.6 hPa | 0 mm | - | 89 W/m² | - |
| 1777484377 | 10° C | 90% | 1008.9 hPa | 0 mm | - | 85 W/m² | - |
| 1777484073 | 10.56° C | 89% | 1008.7 hPa | 0 mm | - | 80 W/m² | - |
| 1777483769 | 10.56° C | 89% | 1008.8 hPa | 0 mm | - | 86 W/m² | - |
| 1777483466 | 10.56° C | 88% | 1008.7 hPa | 0 mm | - | 90 W/m² | - |
| 1777483166 | 10.56° C | 88% | 1008.6 hPa | 0 mm | - | 93 W/m² | - |
| 1777482863 | 10.56° C | 89% | 1008.9 hPa | 0 mm | - | 113 W/m² | - |
| 1777482559 | 10.56° C | 89% | 1008.7 hPa | 0 mm | - | 100 W/m² | - |
| 1777482257 | 10.56° C | 88% | 1008.7 hPa | 0 mm | - | 106 W/m² | - |
| 1777481954 | 10.56° C | 88% | 1009 hPa | 0 mm | - | 97 W/m² | - |
| 1777481652 | 10.56° C | 89% | 1008.7 hPa | 0 mm | - | 105 W/m² | - |
| 1777481348 | 10.56° C | 88% | 1008.8 hPa | 0 mm | - | 131 W/m² | - |
| 1777481045 | 10.56° C | 88% | 1008.9 hPa | 0 mm | - | 126 W/m² | - |
| 1777480741 | 10.56° C | 89% | 1008.7 hPa | 0 mm | - | 155 W/m² | - |
* Rain latest hour (hover to see other rain measurements)
** Current wind speed in m/s (hover to see current wind gust speed)